Flag for Kazakhstan Weather past 2 weeks in Aqtobe, Kazakhstan

Now
45 °F

Clear.


Feels Like: 45 °F
Forecast: 43 / 71 °F
Wind: No wind

Location: Aktjubinsk

Current Time: May 23, 2015 at 1:48:00 AM

Latest Report: May 23, 2015 at 1:00 AM


Visibility: 10 mi

Pressure: 29.98 "Hg

Humidity: 93%

Dew point: 43 °F

Location of AqtobeLocation

Historic Weather in Aqtobe — Graph

°F

Aqtobe temperature yesterday

Maximum temperature yesterday: 73 °F (at 6:00 PM)
Minimum temperature yesterday: 43 °F (at 4:30 AM)
Average temperature yesterday: 58 °F

Past Weeks' High & Low Weather Summary

 TemperatureHumidityPressure
High73 °F (May 22, 6:00 PM)100% (May 8, 4:00 AM)30.27 "Hg (May 8, 4:00 AM)
Low36 °F (May 11, 5:30 AM)22% (May 22, 6:30 PM)29.47 "Hg (May 9, 5:00 AM)
Average52 °F80%29.83 "Hg
* Reported Midnight between May 7 and May 8 — May 23 12:30 AM, Aqtobe, Weather by CustomWeather, © 2015

Note: Actual official high and low records may vary slightly from our data, if they occured in-between our weather recording intervals... More about our weather records

Advertising

Aqtobe weather history for previous 24 hours

 ConditionsComfort  
Time TempWeatherWind HumidityBarometerVisibility
12:30 AM
Sat, May 23
48 °FClear.No wind87%29.98 "Hg10 mi
12:00 AM48 °FClear.3 mph87%29.98 "Hg10 mi
11:30 PM
Fri, May 22
48 °FClear.3 mph87%29.98 "Hg10 mi
11:00 PM50 °FClear.1 mph82%29.98 "Hg10 mi
10:30 PM48 °FClear.3 mph87%29.95 "Hg10 mi
10:00 PM55 °FClear.8 mph63%29.95 "Hg10 mi
9:30 PM57 °FClear.8 mph59%29.92 "Hg10 mi
9:00 PM59 °FClear.13 mph59%29.92 "Hg10 mi
8:30 PM68 °FSunny.20 mph28%29.86 "Hg10 mi
8:00 PM70 °FScattered clouds.22 mph25%29.86 "HgN/A
7:30 PM70 °FPartly sunny.20 mph27%29.86 "HgN/A
7:00 PM72 °FPartly sunny.26 mph25%29.83 "HgN/A
6:30 PM73 °FScattered clouds.26 mph22%29.83 "HgN/A
6:00 PM73 °FBroken clouds.26 mph29%29.83 "HgN/A
5:30 PM72 °FBroken clouds.22 mph31%29.83 "HgN/A
5:00 PM72 °FBroken clouds.24 mph41%29.86 "HgN/A
4:30 PM72 °FSunny.26 mph44%29.86 "Hg10 mi
4:00 PM72 °FSunny.22 mph41%29.89 "Hg10 mi
3:30 PM70 °FSunny.22 mph40%29.89 "Hg10 mi
3:00 PM70 °FSunny.22 mph38%29.92 "Hg10 mi
2:30 PM70 °FSunny.20 mph40%29.92 "Hg10 mi
2:00 PM68 °FSunny.17 mph43%29.92 "Hg10 mi
1:30 PM68 °FSunny.15 mph43%29.95 "Hg10 mi
1:00 PM68 °FSunny.13 mph46%29.95 "Hg10 mi
12:30 PM66 °FPassing clouds.15 mph46%29.95 "HgN/A
12:00 PM66 °FPassing clouds.15 mph49%29.95 "HgN/A
11:30 AM64 °FSunny.15 mph52%29.98 "Hg10 mi
11:00 AM63 °FSunny.13 mph59%29.98 "Hg10 mi
10:30 AM61 °FSunny.8 mph59%29.98 "Hg10 mi
10:00 AM59 °FSunny.10 mph72%29.98 "Hg10 mi
9:30 AM57 °FClear.6 mph77%29.98 "Hg4 mi
9:00 AM57 °FClear.3 mph72%29.98 "Hg4 mi
8:30 AM55 °FClear.6 mph77%29.98 "Hg4 mi
8:00 AM52 °FClear.3 mph88%29.98 "Hg3 mi
7:30 AM50 °FClear.8 mph88%29.98 "Hg6 mi
7:00 AM48 °FClear.6 mph94%29.98 "Hg6 mi
6:30 AM45 °FClear.6 mph100%29.95 "Hg5 mi
6:00 AM43 °FClear.6 mph100%29.95 "Hg4 mi
5:30 AM45 °FClear.3 mph93%29.95 "Hg4 mi
5:00 AM45 °FFog.1 mph100%29.95 "Hg2 mi
4:30 AM43 °FFog.1 mph100%29.95 "Hg3 mi
4:00 AM45 °FClear.3 mph93%29.95 "Hg10 mi
3:30 AM45 °FClear.3 mph100%29.95 "Hg10 mi
3:00 AM45 °FClear.3 mph93%29.92 "Hg10 mi
2:30 AM48 °FClear.3 mph87%29.92 "Hg5 mi
1:30 AM48 °FClear.1 mph94%29.92 "Hg6 mi
1:00 AM46 °FClear.1 mph93%29.92 "Hg10 mi
Weather by CustomWeather, © 2015

See weather overviewHow to use our weather pages